Mona Airport

Jump to: basic info | weather | comments

Related pages: nearby airports | nearby navaids

Basic information (top)

Location: lon 18.075300, lat -67.931000, elev 1 ft / 0 m msl
Status: small_airport

Weather (top)

Current conditions for Punta Cana International Airport 38nm (71km) NW (rec'd 2015/01/30 13:00Z):

MDPC 301300Z 08010KT 9999 SCT021 25/21 Q1016

Airport forecast for Punta Cana International Airport 38nm (71km) NW (rec'd 2015/01/27 06:18Z):

TAF MDPC 270400Z 2706/2806 17004KT 9999 FEW020 
      BECMG 2707/2709 00000KT PROB30 2712/2715 7000 - RA SCT018 BKN070

Latest comments (top)

No comments yet for Mona Airport

More... (top)

See also NOTAMs and nearby airports and navaids, or visit the Mona Airport page at the main OurAirports website..